• In Uzbekistan
  • List of Countries
  • For 7 days
  • Water Temperature
  • Satellite Maps
  • Weather Map
  • Weather Widgets
  • user-avatar
    Login

    Hourly Weather Bukavu

    Today, 23 July, Monday

    Time Temperature Precipitation Wind Pressure Humidity
    00:00 +21°C° 0 mm 0 mps 688 mmHg 80%
    01:00 +20°C° 0 mm 0 mps 688 mmHg 81%
    02:00 +20°C° 0 mm 0 mps 689 mmHg 82%
    03:00 +20°C° 0 mm 0 mps 689 mmHg 84%
    04:00 +19°C° 0 mm 0 mps 689 mmHg 85%
    05:00 +19°C° 0 mm 0 mps 689 mmHg 87%
    06:00 +21°C° 0 mm 0 mps 689 mmHg 80%
    07:00 +22°C° 0 mm 0 mps 690 mmHg 73%
    08:00 +24°C° 0 mm 0 mps 690 mmHg 66%
    09:00 +28°C° 0 mm 1 mps 690 mmHg 57%
    10:00 +30°C° 0 mm 1 mps 691 mmHg 48%
    11:00 +33°C° 0 mm 1 mps 691 mmHg 40%
    12:00 +33°C° 0 mm 1 mps 690 mmHg 40%
    13:00 +33°C° 0 mm 1 mps 690 mmHg 40%
    14:00 +33°C° 0 mm 1 mps 689 mmHg 41%
    15:00 +32°C° 0 mm 1 mps 689 mmHg 45%
    16:00 +31°C° 0 mm 1 mps 688 mmHg 50%
    17:00 +30°C° 0 mm 1 mps 688 mmHg 55%
    18:00 +28°C° 0 mm 1 mps 688 mmHg 62%
    19:00 +26°C° 0 mm 1 mps 688 mmHg 69%
    20:00 +24°C° 0 mm 1 mps 688 mmHg 77%
    21:00 +23°C° 0 mm 1 mps 688 mmHg 77%
    22:00 +23°C° 0 mm 1 mps 689 mmHg 77%
    23:00 +20°C° 0 mm 0 mps 689 mmHg 77%

    Tomorrow, 24 July, Tuesday

    Time Temperature Precipitation Wind Pressure Humidity
    00:00 +20°C° 0.1 mm 0 mps 689 mmHg 79%
    01:00 +22°C° 0.1 mm 1 mps 689 mmHg 81%
    02:00 +22°C° 0.1 mm 1 mps 688 mmHg 82%
    03:00 +22°C° 0.1 mm 1 mps 688 mmHg 84%
    04:00 +20°C° 0.1 mm 0 mps 688 mmHg 85%
    05:00 +19°C° 0.1 mm 0 mps 688 mmHg 86%
    06:00 +21°C° 0 mm 0 mps 689 mmHg 83%
    07:00 +22°C° 0 mm 0 mps 689 mmHg 79%
    08:00 +23°C° 0 mm 0 mps 690 mmHg 75%
    09:00 +28°C° 0 mm 1 mps 690 mmHg 64%
    10:00 +30°C° 0 mm 1 mps 690 mmHg 53%
    11:00 +33°C° 0 mm 1 mps 691 mmHg 41%
    12:00 +33°C° 0 mm 1 mps 690 mmHg 42%
    13:00 +32°C° 0 mm 1 mps 689 mmHg 44%
    14:00 +32°C° 0 mm 1 mps 689 mmHg 45%
    15:00 +31°C° 0 mm 1 mps 688 mmHg 50%
    16:00 +30°C° 0 mm 1 mps 688 mmHg 56%
    17:00 +28°C° 0 mm 1 mps 687 mmHg 62%
    18:00 +27°C° 0.1 mm 1 mps 688 mmHg 68%
    19:00 +25°C° 0.1 mm 1 mps 688 mmHg 74%
    20:00 +24°C° 0.1 mm 1 mps 688 mmHg 81%
    21:00 +24°C° 0 mm 1 mps 689 mmHg 81%
    22:00 +24°C° 0 mm 1 mps 689 mmHg 82%
    23:00 +21°C° 0 mm 0 mps 689 mmHg 82%

    Day after tomorrow, 25 July, Wednesday

    Time Temperature Precipitation Wind Pressure Humidity
    00:00 +21°C° 0.3 mm 0 mps 689 mmHg 86%
    01:00 +20°C° 0.3 mm 0 mps 689 mmHg 89%
    02:00 +20°C° 0.3 mm 0 mps 688 mmHg 92%
    03:00 +19°C° 0.2 mm 0 mps 688 mmHg 93%
    04:00 +19°C° 0.2 mm 0 mps 688 mmHg 94%
    05:00 +19°C° 0.2 mm 0 mps 688 mmHg 94%
    06:00 +20°C° 0 mm 0 mps 688 mmHg 91%
    07:00 +21°C° 0 mm 0 mps 689 mmHg 87%
    08:00 +22°C° 0 mm 0 mps 690 mmHg 84%
    09:00 +26°C° 0.2 mm 0 mps 690 mmHg 70%
    10:00 +29°C° 0.2 mm 0 mps 691 mmHg 57%
    11:00 +32°C° 0.2 mm 0 mps 691 mmHg 43%
    12:00 +31°C° 0 mm 0 mps 690 mmHg 43%
    13:00 +31°C° 0 mm 0 mps 690 mmHg 44%
    14:00 +30°C° 0 mm 0 mps 689 mmHg 44%
    15:00 +31°C° 0.2 mm 1 mps 688 mmHg 52%
    16:00 +29°C° 0.2 mm 1 mps 688 mmHg 59%
    17:00 +27°C° 0.2 mm 1 mps 687 mmHg 67%
    18:00 +26°C° 0.7 mm 1 mps 688 mmHg 74%
    19:00 +24°C° 0.7 mm 1 mps 688 mmHg 81%
    20:00 +23°C° 0.7 mm 1 mps 689 mmHg 88%
    21:00 +23°C° 1.6 mm 1 mps 689 mmHg 91%
    22:00 +23°C° 1.6 mm 1 mps 689 mmHg 93%
    23:00 +22°C° 1.6 mm 1 mps 690 mmHg 95%

    26 July, Thursday

    Time Temperature Precipitation Wind Pressure Humidity
    00:00 +22°C° 1.5 mm 1 mps 689 mmHg 96%
    01:00 +22°C° 1.5 mm 1 mps 689 mmHg 96%
    02:00 +22°C° 1.5 mm 1 mps 689 mmHg 96%
    03:00 +22°C° 3.2 mm 1 mps 689 mmHg 97%
    04:00 +22°C° 3.2 mm 1 mps 689 mmHg 97%
    05:00 +21°C° 3.2 mm 1 mps 689 mmHg 97%
    06:00 +21°C° 2.6 mm 1 mps 690 mmHg 97%
    07:00 +21°C° 2.6 mm 1 mps 690 mmHg 98%
    08:00 +21°C° 2.6 mm 1 mps 691 mmHg 98%
    09:00 +21°C° 1.1 mm 1 mps 691 mmHg 98%
    10:00 +21°C° 1.1 mm 1 mps 691 mmHg 97%
    11:00 +21°C° 1.1 mm 1 mps 691 mmHg 97%
    12:00 +22°C° 0.1 mm 1 mps 691 mmHg 90%
    13:00 +23°C° 0.1 mm 1 mps 690 mmHg 84%
    14:00 +24°C° 0.1 mm 1 mps 690 mmHg 77%
    15:00 +25°C° 0 mm 1 mps 690 mmHg 75%
    16:00 +23°C° 0 mm 0 mps 689 mmHg 73%
    17:00 +23°C° 0 mm 0 mps 689 mmHg 71%
    18:00 +22°C° 0 mm 0 mps 689 mmHg 76%
    19:00 +20°C° 0 mm 0 mps 689 mmHg 81%
    20:00 +19°C° 0 mm 0 mps 689 mmHg 86%
    21:00 +19°C° 0 mm 0 mps 690 mmHg 86%
    22:00 +18°C° 0 mm 0 mps 690 mmHg 86%
    23:00 +18°C° 0 mm 0 mps 690 mmHg 86%

    27 July, Friday

    Time Temperature Precipitation Wind Pressure Humidity
    00:00 +18°C° 0 mm 0 mps 690 mmHg 87%
    01:00 +18°C° 0 mm 0 mps 689 mmHg 88%
    02:00 +18°C° 0 mm 0 mps 689 mmHg 88%
    03:00 +17°C° 0 mm 0 mps 689 mmHg 90%
    04:00 +17°C° 0 mm 0 mps 689 mmHg 91%
    05:00 +17°C° 0 mm 0 mps 689 mmHg 92%
    06:00 +18°C° 0 mm 0 mps 690 mmHg 87%
    07:00 +20°C° 0 mm 0 mps 690 mmHg 82%
    08:00 +21°C° 0 mm 0 mps 691 mmHg 77%
    09:00 +23°C° 0 mm 0 mps 691 mmHg 70%
    10:00 +24°C° 0 mm 0 mps 691 mmHg 64%
    11:00 +26°C° 0 mm 0 mps 691 mmHg 58%
    12:00 +27°C° 0 mm 0 mps 691 mmHg 54%
    13:00 +30°C° 0 mm 1 mps 690 mmHg 50%
    14:00 +31°C° 0 mm 1 mps 690 mmHg 46%
    15:00 +30°C° 0 mm 1 mps 689 mmHg 51%
    16:00 +27°C° 0 mm 0 mps 689 mmHg 57%
    17:00 +26°C° 0 mm 0 mps 688 mmHg 62%
    18:00 +25°C° 0 mm 0 mps 688 mmHg 67%
    19:00 +23°C° 0 mm 0 mps 689 mmHg 72%
    20:00 +21°C° 0 mm 0 mps 689 mmHg 77%
    21:00 +21°C° 0 mm 0 mps 689 mmHg 79%
    22:00 +20°C° 0 mm 0 mps 689 mmHg 81%
    23:00 +20°C° 0 mm 0 mps 689 mmHg 82%

    28 July, Saturday

    Time Temperature Precipitation Wind Pressure Humidity
    00:00 +19°C° 0.1 mm 0 mps 689 mmHg 85%
    01:00 +19°C° 0.1 mm 0 mps 689 mmHg 88%
    02:00 +18°C° 0.1 mm 0 mps 688 mmHg 91%
    03:00 +18°C° 0.2 mm 0 mps 689 mmHg 93%
    04:00 +18°C° 0.2 mm 0 mps 689 mmHg 94%
    05:00 +17°C° 0.2 mm 0 mps 689 mmHg 96%
    06:00 +19°C° 0.2 mm 0 mps 689 mmHg 93%
    07:00 +20°C° 0.2 mm 0 mps 690 mmHg 91%
    08:00 +21°C° 0.2 mm 0 mps 691 mmHg 88%
    09:00 +24°C° 0.4 mm 0 mps 691 mmHg 75%
    10:00 +27°C° 0.4 mm 0 mps 691 mmHg 63%
    11:00 +30°C° 0.4 mm 0 mps 692 mmHg 50%
    12:00 +31°C° 0 mm 0 mps 691 mmHg 47%
    13:00 +31°C° 0 mm 0 mps 690 mmHg 44%
    14:00 +32°C° 0 mm 0 mps 689 mmHg 41%
    15:00 +31°C° 0 mm 0 mps 689 mmHg 46%
    16:00 +29°C° 0 mm 0 mps 689 mmHg 51%
    17:00 +28°C° 0 mm 0 mps 688 mmHg 56%
    18:00 +28°C° 0.7 mm 1 mps 688 mmHg 66%
    19:00 +25°C° 0.7 mm 1 mps 688 mmHg 76%
    20:00 +23°C° 0.7 mm 1 mps 689 mmHg 87%
    21:00 +23°C° 0.4 mm 1 mps 689 mmHg 89%
    22:00 +22°C° 0.4 mm 1 mps 689 mmHg 92%
    23:00 +22°C° 0.4 mm 1 mps 689 mmHg 95%
    Show more